Spokane, WA
on Saturday, November 3, 2012

Saturday
Previous Day Next Day
Daily Summary
 ActualAverageRecord
Temperature
Mean Temperature °F 40°F  
Max Temperature 51°F 48°F 69°F (1908)
Min Temperature 43°F 33°F 8°F (1935)
Degree Days
Heating Degree Days 18 25  
Month to date heating degree days 48 73  
Since 1 July heating degree days 654 861  
Cooling Degree Days 0 0  
Month to date cooling degree days 0 0  
Year to date cooling degree days 535 450  
Moisture
Dew Point 45°F   
Average Humidity 92    
Maximum Humidity 100    
Minimum Humidity 83    
Precipitation
Precipitation 0.19 in 0.07 in 0.90 in (1958)
Month to date precipitation 0.27 0.19  
Year to date precipitation 15.77 12.15  
Snow
Snow 0.00 in 0.10 in 2.20 in (1893)
Month to date snowfall 0.0 0.2  
Since 1 July snowfall T 0.3  
Since 1 September snowfall T 0.3  
Snow Depth 0.00 in   
Wind
Wind Speed 8 mph   
Max Wind Speed 18 mph   
Max Gust Speed 23 mph   
Visibility 8 miles   
Events Fog , Rain   

Key: T is trace of precipitation, MM is missing value
Source: NWS Daily Summary
Time(PDT)TemperatureDew PointHumidity Pressure Visibility Wind DirectionWind SpeedGust SpeedPrecipitationEvents Conditions
12:53 AM 45.0°F 43.0°F 93% 30.06 in 10.0 miles ENE 6.9 mph - N/A   Overcast
1:53 AM 45.0°F 43.0°F 93% 30.05 in 9.0 miles East 8.1 mph - N/A Fog Overcast
2:53 AM 44.1°F 43.0°F 96% 30.06 in 7.0 miles ENE 5.8 mph - N/A Fog Overcast
3:53 AM 44.1°F 42.1°F 93% 30.05 in 8.0 miles ENE 5.8 mph - N/A Fog Mostly Cloudy
4:53 AM 43.0°F 42.1°F 97% 30.06 in 7.0 miles ENE 4.6 mph - N/A Fog Scattered Clouds
5:53 AM 44.1°F 42.1°F 93% 30.06 in 7.0 miles ENE 6.9 mph - N/A Fog Overcast
6:53 AM 44.1°F 42.1°F 93% 30.07 in 10.0 miles NE 3.5 mph - N/A   Mostly Cloudy
7:53 AM 43.0°F 42.1°F 97% 30.09 in 7.0 miles Calm Calm - 0.00 in Rain Light Rain
8:53 AM 44.1°F 43.0°F 96% 30.09 in 5.0 miles Calm Calm - 0.02 in Rain Light Rain
9:53 AM 45.0°F 43.0°F 93% 30.09 in 7.0 miles SSE 3.5 mph - 0.01 in Fog , Rain Light Rain
10:20 AM 46.4°F 42.8°F 87% 30.07 in 6.0 miles Calm Calm - 0.00 in Rain Light Rain
10:53 AM 46.0°F 44.1°F 93% 30.10 in 2.5 miles SSE 6.9 mph - 0.02 in Fog , Rain Light Rain
11:33 AM 46.4°F 46.4°F 100% 30.07 in 2.5 miles South 9.2 mph - 0.05 in Rain Rain
11:53 AM 48.0°F 46.9°F 96% 30.09 in 2.5 miles South 6.9 mph - 0.09 in Rain Light Rain
12:53 PM 48.0°F 46.9°F 96% 30.09 in 3.0 miles South 6.9 mph - 0.04 in Rain Light Rain
1:53 PM 48.9°F 46.9°F 93% 30.08 in 8.0 miles SSW 11.5 mph - 0.01 in   Overcast
2:47 PM 51.8°F 48.2°F 88% 30.06 in 10.0 miles SSW 11.5 mph - N/A   Overcast
2:53 PM 51.1°F 48.0°F 89% 30.08 in 10.0 miles SSW 10.4 mph - N/A   Overcast
3:28 PM 51.8°F 46.4°F 82% 30.07 in 10.0 miles SSW 10.4 mph - N/A   Overcast
3:37 PM 51.8°F 46.4°F 82% 30.07 in 10.0 miles SSW 10.4 mph - N/A   Overcast
3:53 PM 51.1°F 46.9°F 86% 30.10 in 10.0 miles SSW 10.4 mph - N/A   Overcast
4:08 PM 51.8°F 46.4°F 82% 30.08 in 10.0 miles SSW 9.2 mph - N/A   Mostly Cloudy
4:20 PM 51.8°F 46.4°F 82% 30.08 in 10.0 miles South 5.8 mph - N/A   Overcast
4:28 PM 51.8°F 46.4°F 82% 30.08 in 10.0 miles SSW 6.9 mph - N/A   Overcast
4:53 PM 50.0°F 46.9°F 89% 30.11 in 10.0 miles South 6.9 mph - N/A   Overcast
5:53 PM 50.0°F 46.9°F 89% 30.12 in 10.0 miles South 6.9 mph - N/A   Overcast
6:12 PM 50.0°F 46.4°F 87% 30.10 in 10.0 miles SSW 8.1 mph - N/A   Mostly Cloudy
6:53 PM 50.0°F 46.9°F 89% 30.13 in 10.0 miles South 4.6 mph - N/A   Overcast
7:53 PM 50.0°F 46.9°F 89% 30.13 in 10.0 miles South 9.2 mph - 0.00 in Rain Light Rain
8:53 PM 50.0°F 46.9°F 89% 30.13 in 10.0 miles South 13.8 mph - 0.00 in   Overcast
9:53 PM 50.0°F 46.9°F 89% 30.15 in 10.0 miles SSW 11.5 mph - 0.00 in   Overcast
10:53 PM 50.0°F 46.9°F 89% 30.16 in 10.0 miles SSW 13.8 mph - 0.00 in   Overcast
11:53 PM 50.0°F 46.9°F 89% 30.15 in 10.0 miles SSW 16.1 mph - 0.00 in   Overcast
Moon Phase
Nov. 03 Nov. 06 Nov. 13 Nov. 20 Nov. 28
Sunrise:07:38 AM (PDT) Moon Rise:09:07 PM (PDT)11/3
Sunset:05:28 PM (PDT) Moon Set:11:52 AM (PDT)11/3

Copyright © 2014 The Weather Underground, Inc.